Location: Bakov nad Jizerou
(50.4784°N, 14.9394°E)
Time: 18:53:32
(UTC+00:00)

SL-8 R/B - Pass Details

Date: 28 October 2021
Orbit: 656 x 667 km, 48.4° (Epoch: 03 December)

Event Time Altitude Azimuth Distance (km) Brightness Sun altitude
Rises 18:08:23 0° 279° (W) 2,987 8.5 -23.7°
Reaches altitude 10° 18:10:47 10° 274° (W) 2,076 7.3 -24.0°
Maximum altitude 18:15:24 49° 200° (SSW) 855 4.2 -24.8°
Enters shadow 18:15:42 48° 187° (S) 863 4.2 -24.8°
